Wind_Speed
13 11 10 7 5 6 18 19 19 18 17 12 12 15 17 14 7 11 21 29 23 22 19 17 16 15 14 13 13 12 11 11 11 10 8 7 6 6 6 7 6 6 6 7 9 9 8 8 8
12 14 10 6 6 13 13 15 15 12 7 14 17 15 21 18 18 13 18 27 21 19 18 16 16 15 15 14 12 12 11 10 10 8 6 5 5 6 6 6 5 6 7 7 8 9 7 8 8
17 18 7 4 10 13 12 12 12 9 8 11 18 14 12 12 13 13 18 23 20 18 18 17 16 14 14 15 13 12 11 10 9 7 6 4 4 5 5 4 6 6 6 6 8 8 6 8 8
9 7 6 2 15 16 14 12 11 11 14 6 17 13 14 9 9 19 16 23 16 20 20 16 15 14 13 13 12 11 10 9 8 7 6 5 5 4 5 5 6 6 5 6 6 7 8 9 8
15 7 11 12 15 14 9 11 15 14 12 13 16 13 11 14 19 19 14 13 24 17 19 18 15 13 13 12 13 11 10 10 8 7 6 5 5 4 4 4 5 6 5 5 7 7 8 8 8
9 8 9 11 15 13 7 14 12 13 11 13 14 14 12 16 17 16 14 21 22 19 17 18 16 13 12 11 11 10 9 9 8 7 5 4 7 5 4 4 4 5 6 5 7 6 7 8 8
18 7 2 7 10 14 3 10 10 13 11 8 13 14 10 14 16 15 12 16 20 22 21 17 14 13 12 11 10 10 9 8 7 7 6 5 5 4 4 5 5 5 7 6 6 7 7 7 8
11 7 26 10 7 13 5 10 11 14 11 6 4 9 13 17 19 16 11 10 11 26 21 20 15 12 12 12 12 10 9 8 9 8 8 8 7 7 7 6 6 7 7 8 7 7 8 7 8
14 7 9 13 11 9 6 6 11 13 4 9 6 12 20 22 21 18 15 13 10 17 19 19 17 15 14 14 12 12 11 9 8 8 9 8 8 10 10 7 10 8 8 8 8 8 8 7 9
8 10 20 7 6 12 18 2 12 17 19 9 10 18 23 23 21 19 17 16 14 12 20 18 18 17 14 14 14 10 10 11 11 10 12 10 8 11 10 11 10 10 9 10 9 9 10 9 9
13 8 8 6 8 10 18 10 16 25 15 12 16 18 19 21 20 18 16 16 14 14 12 24 23 17 17 14 13 14 13 11 13 11 12 9 10 9 10 11 12 13 13 10 11 12 12 12 12
7 13 10 11 3 5 7 4 6 2 9 11 21 21 20 19 17 19 18 19 18 16 14 13 15 16 14 12 14 17 17 13 12 14 10 8 11 9 10 9 14 12 15 10 15 14 10 13 13
11 13 11 10 14 3 4 11 4 4 9 10 21 20 20 18 18 20 19 21 19 19 17 15 16 14 13 9 10 15 17 17 17 16 12 6 8 9 11 13 3 11 12 9 11 16 14 9 10
20 18 15 17 17 11 8 10 8 10 8 13 17 18 18 18 19 20 19 17 20 20 17 20 19 17 16 15 10 9 9 11 13 15 20 12 9 11 10 12 11 10 11 11 9 9 15 14 11
16 18 16 20 17 11 2 12 0 8 9 13 15 15 17 16 22 18 19 18 20 23 21 22 20 18 18 16 14 12 12 13 13 14 17 17 17 14 15 14 12 13 9 11 12 13 11 14 10
20 19 16 21 15 7 6 6 3 15 13 14 17 15 15 16 17 22 21 20 21 23 23 24 19 21 19 17 18 19 15 11 13 17 17 19 16 16 19 19 14 12 12 12 12 12 12 9 9
16 17 20 20 11 8 10 5 10 17 16 14 15 16 16 15 14 21 24 23 24 24 26 24 22 22 21 22 20 13 12 11 14 15 18 16 13 10 19 16 15 12 10 6 10 11 13 11 13
19 19 21 16 9 11 15 12 4 13 13 16 15 17 16 17 18 20 23 24 23 24 27 25 20 20 20 19 15 10 5 11 14 12 14 14 8 9 14 20 17 15 11 10 7 8 9 12 13
18 20 21 18 16 15 11 12 12 14 13 13 15 18 17 18 19 23 25 24 25 26 25 24 22 22 18 16 15 15 15 18 12 11 8 6 6 6 12 16 21 16 14 14 13 8 8 10 12
18 19 17 19 15 16 16 19 11 18 15 9 12 16 21 19 18 20 26 25 27 27 26 25 23 24 18 18 20 16 12 13 7 8 9 6 7 9 11 13 17 17 16 16 14 11 9 9 9
18 15 17 16 17 16 16 19 11 17 17 17 11 8 17 18 18 20 21 27 27 27 28 26 26 20 17 16 13 9 6 8 8 9 11 10 9 8 10 11 16 20 19 19 17 14 14 10 10
20 15 19 18 15 12 14 14 15 17 14 15 7 8 7 17 15 19 22 25 28 27 28 27 24 15 17 17 11 12 10 9 5 13 17 16 12 9 11 12 14 15 18 18 17 16 16 16 17
17 15 18 16 15 16 16 10 14 5 16 9 9 12 2 3 15 20 23 28 27 26 25 25 12 9 10 15 15 14 11 11 11 6 12 14 13 10 13 13 15 15 14 13 15 13 14 16 18
13 16 18 14 15 13 16 15 14 15 7 10 10 6 9 6 4 14 28 31 26 26 25 21 15 6 5 9 10 12 4 6 6 5 4 9 9 13 9 11 13 13 12 12 14 13 13 14 16
16 17 12 13 12 13 19 17 12 9 14 13 12 10 6 5 4 9 19 18 24 27 21 17 13 5 4 6 9 9 7 6 7 7 4 8 8 10 11 11 7 9 9 8 9 10 11 12 13
19 18 13 14 14 15 15 13 12 19 12 17 7 6 6 4 4 8 20 17 25 24 18 17 11 6 4 4 5 7 7 7 5 8 7 8 8 8 10 11 11 11 6 5 6 8 8 8 10
19 16 16 18 19 14 13 6 7 9 6 7 8 14 11 11 6 10 18 20 20 20 19 19 11 10 6 4 6 7 7 5 6 7 7 6 7 10 12 10 6 6 4 3 5 6 5 6 5
21 15 14 12 16 16 15 13 6 15 10 17 15 13 11 10 8 14 13 17 18 19 20 21 15 13 8 2 5 9 8 8 5 7 8 9 9 11 11 10 8 5 5 5 4 3 2 2 4
15 17 17 18 12 12 13 3 9 11 10 13 14 13 12 12 10 11 12 14 16 17 21 22 17 22 18 15 10 10 11 10 8 9 11 10 11 10 9 7 6 7 6 6 4 2 2 2 4
17 17 20 12 13 13 13 7 10 3 5 15 14 14 13 13 11 11 12 14 16 18 20 19 16 14 8 11 14 12 11 10 12 12 14 14 13 12 10 8 6 3 4 3 1 4 5 1 2
Wind_Direction
212 209 223 240 262 232 47 50 45 41 48 52 56 66 56 50 111 109 113 132 127 132 136 136 138 133 129 129 139 138 134 135 134 132 123 116 100 96 98 106 111 89 96 117 111 119 112 115 110
215 223 223 272 259 65 60 61 59 45 10 68 41 84 72 72 91 98 113 122 127 131 139 140 142 139 132 129 134 139 140 143 139 134 127 121 107 106 102 107 110 101 104 114 124 118 122 118 132
224 257 265 233 48 62 68 72 80 73 45 79 78 51 70 105 128 114 120 128 122 137 142 149 142 139 136 137 140 138 140 141 139 139 135 125 123 126 126 119 118 120 117 117 122 126 125 130 127
236 216 239 322 69 63 58 58 63 90 92 84 109 82 79 60 105 126 142 123 125 135 134 147 147 144 140 139 138 137 136 139 141 142 139 141 137 139 140 143 140 130 135 136 134 136 136 140 140
243 261 271 92 81 89 89 78 69 82 57 55 95 108 98 87 108 134 147 126 128 121 131 146 154 149 148 150 146 145 146 147 146 147 153 140 134 136 131 149 148 145 146 149 150 147 149 151 155
260 247 286 97 99 78 85 103 85 100 108 123 119 103 98 118 132 142 146 136 146 144 137 141 156 157 158 159 159 158 158 156 162 162 158 138 149 134 140 140 160 164 160 164 151 161 160 167 163
261 234 157 6 34 98 111 68 101 75 89 80 109 112 123 150 140 148 147 145 145 141 136 146 150 159 165 169 173 175 174 174 175 177 177 175 191 208 190 185 181 171 172 167 173 180 176 180 180
296 342 339 130 194 113 129 104 56 89 87 111 171 138 156 138 150 149 152 135 149 135 146 146 162 168 172 180 183 188 189 193 197 194 192 195 199 211 218 200 203 188 182 182 179 184 184 186 194
265 293 245 28 62 73 224 169 98 71 114 90 56 106 136 145 151 153 161 155 173 147 150 153 164 181 182 183 190 190 198 203 212 218 212 212 209 222 218 214 204 194 190 187 188 188 194 200 201
223 293 277 70 9 165 32 58 76 120 305 128 101 108 132 153 159 160 171 172 179 187 153 159 167 170 184 190 188 192 202 202 213 216 223 219 214 214 200 196 199 208 200 194 195 199 200 210 218
267 257 351 36 48 340 163 199 139 148 209 199 148 141 153 161 170 168 181 172 181 181 181 166 171 173 184 207 180 173 204 213 207 216 202 234 221 205 203 213 210 211 202 197 203 206 207 213 220
270 285 324 296 110 278 288 339 194 107 142 132 145 154 165 171 177 176 188 167 178 175 193 176 169 173 192 168 174 192 196 194 204 211 215 265 225 220 227 224 219 214 202 194 206 204 207 210 231
296 270 298 312 302 177 286 287 267 278 141 130 139 157 173 178 177 185 190 168 178 168 188 174 163 174 197 212 196 193 201 203 213 218 210 193 228 235 221 243 207 195 178 199 218 220 214 208 227
297 306 310 293 277 258 227 276 220 221 169 137 146 168 178 185 178 188 184 175 170 169 184 169 169 187 198 209 213 217 217 212 230 235 232 229 229 248 239 230 229 218 198 202 220 232 228 216 213
282 288 277 269 258 242 184 264 315 311 168 154 164 176 182 186 182 186 184 177 175 168 179 168 172 188 195 202 210 213 220 216 229 242 249 244 241 243 237 232 231 228 203 217 232 228 226 224 215
285 280 272 269 248 239 220 184 157 229 216 180 172 179 191 190 189 181 181 177 176 170 179 172 182 188 195 197 211 206 223 232 244 245 257 259 253 248 229 227 224 220 213 221 224 229 233 233 233
253 260 263 264 179 228 233 233 207 229 215 176 184 181 187 188 197 180 179 181 176 175 172 175 181 186 199 203 213 219 189 225 237 250 248 241 245 243 218 217 221 212 197 209 212 216 222 235 247
251 244 242 248 172 203 252 254 274 301 204 206 196 180 183 185 193 187 182 183 180 171 171 175 178 193 203 208 216 206 280 245 234 244 248 224 236 240 208 212 214 215 200 196 206 220 230 238 243
260 274 288 296 306 320 312 288 286 281 271 274 173 177 182 189 188 189 182 181 178 171 170 168 180 197 195 196 213 199 209 232 214 200 187 199 252 241 205 218 217 207 201 209 207 213 241 248 259
259 266 269 274 288 290 287 282 284 277 284 292 265 182 180 185 185 178 174 179 181 177 169 169 200 211 192 198 220 207 195 199 198 193 196 195 210 221 203 215 201 201 203 207 212 223 235 251 262
260 267 282 279 280 283 288 277 264 262 268 245 242 230 184 176 181 173 169 177 185 177 172 171 203 199 190 211 229 239 259 203 199 194 189 190 209 222 187 196 203 215 216 219 223 234 230 247 271
253 249 254 260 268 268 270 275 260 252 258 240 248 117 270 166 175 164 168 177 184 176 170 168 199 193 198 202 212 208 216 230 231 217 201 183 186 203 203 213 202 214 221 228 233 229 238 241 251
264 266 271 284 278 273 267 262 273 186 243 206 128 118 79 97 167 163 169 177 176 172 159 177 179 194 203 204 218 211 212 251 235 224 167 173 179 204 211 209 203 208 215 219 217 230 242 244 249
243 267 269 262 265 264 260 257 266 265 120 354 52 79 128 142 244 169 166 168 170 152 152 167 164 184 216 203 236 245 258 245 291 263 195 177 196 207 211 211 209 211 211 215 216 230 230 232 237
240 239 245 246 244 249 246 241 241 264 153 212 164 120 126 100 255 146 149 154 138 138 160 164 159 162 210 225 225 223 242 236 231 248 202 194 194 207 196 191 208 197 189 203 221 228 236 242 234
250 232 237 239 244 247 232 243 235 233 171 156 233 146 106 134 105 147 136 138 134 145 156 164 148 162 195 233 219 196 184 190 207 225 182 184 174 181 186 186 192 206 188 207 237 231 250 244 238
244 255 244 258 274 278 280 261 350 346 153 196 144 105 102 97 118 118 113 131 148 155 167 174 147 158 162 206 190 194 181 209 202 169 154 160 170 173 170 174 193 182 169 202 236 248 250 241 248
222 245 236 234 247 271 282 283 347 187 199 109 99 104 103 117 141 121 135 152 166 173 172 174 158 170 168 166 215 199 190 191 162 147 156 142 158 159 182 167 173 167 166 201 219 218 261 293 309
204 221 249 264 244 242 245 61 92 61 74 101 117 124 137 133 150 146 153 158 164 166 173 180 162 188 187 156 217 175 168 169 162 142 146 152 159 170 181 176 188 187 185 189 229 241 212 249 326
222 224 216 244 257 268 283 327 34 161 146 127 128 145 144 146 153 162 138 146 169 166 172 179 176 182 202 187 172 180 159 167 163 155 148 155 154 164 176 163 177 170 134 110 227 256 103 113 51
Height
765 766 766 762 777 754 747 746 727 738 740 726 724 732 747 744 757 787 758 764 771 777 781 784 786 789 792 795 798 800 803 806 809 811 812 814 815 816 817 819 820 821 821 823 824 825 827 829 829
765 764 763 757 773 761 762 740 749 742 730 722 727 732 747 760 747 752 760 765 771 778 783 785 787 791 793 796 798 801 804 806 808 811 813 815 817 817 818 820 821 822 823 824 825 826 829 830 831
762 760 760 758 740 764 764 740 738 732 725 724 739 736 744 759 751 756 764 766 772 778 783 786 790 793 794 797 800 803 805 807 809 811 813 816 817 818 819 821 822 823 825 825 826 828 829 831 833
759 754 751 750 756 744 743 733 722 728 727 726 735 756 748 749 750 761 764 767 772 776 781 787 790 793 796 798 801 804 806 809 811 812 814 816 817 819 820 822 823 824 825 827 828 829 830 832 834
751 743 755 742 746 737 729 722 723 735 737 733 736 757 759 754 758 762 765 767 772 779 782 786 791 794 797 799 802 804 806 810 812 814 815 816 818 819 821 822 823 824 826 828 829 831 832 833 834
746 729 767 749 744 730 723 716 723 730 734 734 742 750 757 757 762 765 765 768 773 779 785 787 791 794 797 801 802 804 806 809 811 813 815 816 818 820 821 822 823 824 826 828 830 832 833 834 834
749 763 759 749 747 738 728 713 725 730 733 738 728 755 757 758 763 765 768 770 773 778 784 788 792 795 798 800 803 805 807 809 810 812 814 816 818 819 820 821 823 824 825 827 829 831 833 834 835
732 737 762 743 751 744 717 718 717 730 743 727 726 751 762 755 762 766 769 771 774 777 782 785 791 794 797 799 802 805 807 808 809 811 813 815 816 818 819 819 821 823 825 826 828 830 832 833 835
720 753 760 733 731 749 713 737 719 728 740 731 729 729 741 754 760 765 768 771 773 775 780 784 789 794 796 799 800 802 805 807 810 811 811 812 815 816 817 818 820 821 823 825 827 829 830 832 834
731 751 741 712 712 728 718 716 720 771 762 740 738 738 746 753 759 761 765 769 773 778 780 785 789 792 796 798 800 803 804 805 806 808 809 810 811 813 816 817 819 820 821 823 826 828 829 830 832
721 745 715 708 708 705 720 715 713 741 757 733 739 743 746 751 756 760 764 768 774 777 778 781 785 789 793 795 799 801 804 805 805 806 807 808 808 811 812 813 815 817 819 820 823 825 827 828 829
732 715 710 706 702 708 712 702 710 713 720 710 721 732 741 747 752 755 758 763 768 775 777 780 784 788 791 793 795 797 799 801 802 804 804 805 806 808 810 810 812 815 817 818 820 822 823 825 827
725 716 706 701 700 701 704 712 709 710 702 708 718 729 737 742 747 750 755 759 765 770 775 779 783 786 790 792 794 795 796 798 800 800 802 804 806 807 807 808 811 812 814 817 819 821 823 824 825
720 716 714 707 703 697 708 708 702 704 698 708 717 726 732 737 742 746 751 755 761 767 772 774 777 781 785 788 791 795 795 798 797 798 800 801 803 804 806 807 809 811 811 814 817 819 821 822 823
719 731 718 708 699 700 697 718 715 702 698 708 716 723 727 731 736 742 748 753 757 762 767 771 776 780 784 787 790 793 793 794 797 796 797 797 799 800 803 804 805 807 810 812 814 818 820 821 822
737 730 745 705 692 694 704 739 715 698 701 707 711 718 723 727 731 737 744 749 754 758 762 767 773 777 781 784 784 780 790 792 795 793 795 793 794 795 798 802 804 805 807 809 811 814 817 817 819
741 758 739 719 691 701 707 723 703 690 695 702 702 708 715 722 727 732 739 745 749 754 758 763 769 773 776 776 776 786 769 789 790 792 790 790 791 791 793 798 801 803 805 807 810 813 815 817 819
754 743 727 724 706 703 712 710 694 697 691 692 693 701 707 713 720 726 734 741 746 750 754 761 766 769 773 777 780 784 785 786 787 787 787 788 787 788 791 794 798 801 804 806 809 810 813 815 816
729 732 730 711 695 704 709 710 702 689 683 683 686 689 700 705 709 720 729 736 742 747 753 758 763 764 768 776 777 782 781 783 781 780 784 785 785 786 787 791 795 798 800 804 806 808 811 812 813
723 731 732 714 703 708 712 714 695 688 683 680 679 682 685 693 700 710 721 730 736 742 749 755 759 760 767 769 769 773 777 777 778 778 780 783 784 785 785 788 792 795 798 800 802 805 807 809 809
725 734 731 730 710 702 711 720 707 689 679 673 669 669 674 681 691 702 714 722 730 737 746 752 756 761 765 768 770 773 774 775 775 776 777 779 782 783 784 786 789 792 795 797 799 801 804 806 807
737 713 717 721 728 748 707 750 709 691 687 675 670 671 674 677 683 694 707 715 723 733 743 750 756 762 764 767 769 769 770 770 771 772 773 774 779 781 783 785 788 789 792 794 795 798 800 803 803
725 709 715 716 725 726 725 737 715 692 699 681 675 674 678 678 679 688 700 708 720 731 740 748 758 762 764 766 767 767 767 768 768 770 770 774 777 780 782 784 787 788 790 791 793 795 797 799 802
700 715 717 718 724 752 728 730 722 700 701 696 681 677 681 678 677 681 692 706 718 728 738 747 756 762 764 764 765 765 765 766 767 771 773 774 776 778 781 784 785 787 787 789 791 793 794 796 798
706 726 759 764 756 755 707 719 709 679 678 680 682 677 677 678 678 682 692 705 717 730 740 748 754 760 763 763 763 763 764 764 766 770 771 773 774 777 779 782 782 786 787 789 790 791 793 794 795
711 717 745 773 758 734 696 723 698 662 659 670 667 668 674 678 681 686 696 708 721 733 740 748 753 758 761 762 762 762 763 764 764 768 769 771 772 775 777 780 784 786 788 789 790 790 790 792 793
713 721 700 727 717 730 710 689 673 665 665 664 667 674 678 682 688 691 701 713 723 732 740 746 753 758 761 761 762 761 761 762 764 765 766 768 771 773 777 781 784 785 787 788 790 790 791 791 791
693 689 726 718 758 759 723 709 714 685 676 675 681 684 686 688 692 698 707 716 723 730 738 745 750 754 757 759 758 762 761 763 764 765 766 767 772 774 778 779 782 784 785 787 787 788 789 790 791
695 705 703 701 709 737 741 726 678 690 685 685 686 687 688 692 697 701 708 716 723 729 736 742 746 749 753 752 757 760 760 762 764 765 765 768 771 774 778 779 782 782 784 786 787 786 786 788 788
672 688 695 720 730 711 714 719 679 679 677 674 685 688 687 690 696 701 706 716 721 727 733 739 743 749 754 755 755 759 758 762 764 767 765 768 770 773 777 779 780 782 783 784 787 786 786 787 788